Regional Weather Roundup
Issued by NWS

Home | Current Version | Previous Version | Text Only | Print | Product List | Glossary On
Versions: 1 2 3 4 5 6 7 8 9 10 11 12 13 14 15 16 17 18 19 20 21 22 23 24 25 26 27 28 29 30 31 32 33 34 35 36 37 38 39 40 41 42 43 44 45 46 47 48 49 50
000
ASUS42 KFFC 261203
RWRGA
WEATHER ROUNDUP FOR GEORGIA
NATIONAL WEATHER SERVICE PEACHTREE CITY GA
800 AM EDT SAT JUL 26 2014

NOTE: "FAIR" INDICATES FEW OR NO CLOUDS BELOW 12,000 FEET WITH NO
SIGNIFICANT WEATHER AND/OR OBSTRUCTIONS TO VISIBILITY.

* = USE WITH CAUTION. THE STATIONS MARKED WITH AN ASTERISK MAY NOT
REPORT WEATHER SUCH AS PRECIPITATION, FOG, OR THUNDER AND ARE NOT
QUALITY CONTROLLED BY NWS.

THE REMARK "TC" DENOTES TEMPERATURE READING IN DEGREES CELSIUS.

GAZ001>058-261300-
NORTH GEORGIA

CITY           SKY/WX    TMP DP  RH WIND       PRES   REMARKS
ATLANTA        MOSUNNY   73  68  84 NW3       30.06R
6HR MIN TEMP:  70; 6HR MAX TEMP:  76;

ATHENS         SUNNY     71  68  90 CALM      30.04S
6HR MIN TEMP:  69; 6HR MAX TEMP:  74;

CHAMBLEE       SUNNY     71  66  84 MISG      30.06R
6HR MIN TEMP:  66; 6HR MAX TEMP:  71;

PEACHTREE CITY PTSUNNY   69  67  93 CALM      30.07R FOG
6HR MIN TEMP:  67; 6HR MAX TEMP:  71;

ROME           SUNNY     66  64  93 CALM      30.05R
6HR MIN TEMP:  64; 6HR MAX TEMP:  68;

WEST ATLANTA   SUNNY     69  66  90 CALM      30.06R
6HR MIN TEMP:  65; 6HR MAX TEMP:  70;

GAINESVILLE    SUNNY     69  64  84 CALM      30.08R
6HR MIN TEMP:  66; 6HR MAX TEMP:  71;

CARTERSVILLE   SUNNY     66  64  93 CALM      30.07R
6HR MIN TEMP:  62; 6HR MAX TEMP:  66;



CITY           SKY/WX    TMP DP  RH WIND       PRES   REMARKS
DALTON*        SUNNY     64  64 100 CALM      30.06R
LAWRENCEVILLE* SUNNY     68  61  77 CALM      30.05R
MARIETTA       MOSUNNY   69  67  93 CALM      30.07R
KENNESAW*      MOSUNNY   70  66  88 SW3       30.08R
$$

GAZ059>098-102>109-261300-
CENTRAL GEORGIA

CITY           SKY/WX    TMP DP  RH WIND       PRES   REMARKS
AUGUSTA-BUSH   FOG       72  72 100 CALM      30.02S VSB 1/2
6HR MIN TEMP:  70; 6HR MAX TEMP:  73;

AUGUSTA-DANIEL MOSUNNY   75  72  90 MISG      30.04R
6HR MIN TEMP:  73; 6HR MAX TEMP:  76;

COLUMBUS       SUNNY     74  72  93 CALM      30.04R
6HR MIN TEMP:  73; 6HR MAX TEMP:  78;

MACON          MOSUNNY   75  75 100 CALM      30.03R
6HR MIN TEMP:  71; 6HR MAX TEMP:  75;

ROBINS AFB     MOSUNNY   76  73  93 CALM      30.03R


CITY           SKY/WX    TMP DP  RH WIND       PRES   REMARKS
LAGRANGE*      CLOUDY    72  72 100 CALM      30.05R FOG
SYLVANIA*      MOSUNNY   76  76 100 CALM      30.04S
MILLEDGEVILLE* MOSUNNY   55 N/A N/A CALM      30.03S HAZE
$$

GAZ099>101-110>166-261300-
SOUTH GEORGIA

CITY           SKY/WX    TMP DP  RH WIND       PRES   REMARKS
SAVANNAH       MOSUNNY   78  73  84 SW5       30.04S
6HR MIN TEMP:  76; 6HR MAX TEMP:  78;

VALDOSTA       MOSUNNY   79  74  84 CALM      30.05S HAZE
6HR MIN TEMP:  77; 6HR MAX TEMP:  79; 6HR PCP:  0.13;

ALMA           MOSUNNY   76  74  93 S5        30.04S
6HR MIN TEMP:  74; 6HR MAX TEMP:  77;

ST SIMONS      SUNNY     78  74  87 SW7       30.05S
6HR MIN TEMP:  76; 6HR MAX TEMP:  79;

FT STEWART     SUNNY     77  73  89 S3        30.04R
ALBANY         CLOUDY    78  75  90 SW5       30.07R FOG
HUNTER AFB     SUNNY     78  75  92 SW7       30.03R
MOODY AFB      PTSUNNY   79  79 100 SW7       30.05R FOG
BRUNSWICK      SUNNY     79  73  83 SW5       30.06S


CITY           SKY/WX    TMP DP  RH WIND       PRES   REMARKS
BAINBRIDGE*      N/A     81  79  94 W3        30.05R FOG
MOULTRIE*      PTSUNNY   77  77 100 W3        30.06R FOG
VIDALIA*         N/A     77  75  94 SW5       30.05R
WAYCROSS*      MOSUNNY   79  77  95 SW5       30.05R
DOUGLAS*       CLOUDY    77  75  94 SW3       30.06R
$$


USA.gov is the U.S. government's official web portal to all federal, state and local government web resources and services.